Location: Poughquag
(41.6090°N, 73.6820°W)
Time: 14:26:29
(UTC-04:00)

Explorer 11/Cluster Stage 4 - Pass Details

Date: 01 June 2020
Orbit: 467 x 1259 km, 28.8° (Epoch: 05 July)

Event Time Altitude Azimuth Distance (km) Brightness Sun altitude
Rises 04:59:23 0° 199° (SSW) 3,253 9.3 -4.5°
Reaches altitude 10° 05:04:10 10° 163° (SSE) 2,564 9.1 -3.8°
Maximum altitude 05:05:30 11° 150° (SSE) 2,576 9.2 -3.5°
Drops below altitude 10° 05:06:54 10° 137° (SE) 2,692 9.5 -3.3°
Sets 05:12:31 0° 104° (ESE) 3,880 10.9 -2.5°
